CAPE
0 5 0 0 0 2 1 0 0 0 0 0 0 0 0 0 0 0 0 0 0 0 0 0 0 0 0 0 0 0 0 0 0 0 0 0 0 0 0 0 0 0 0 0
0 8 0 0 0 1 0 0 0 0 0 0 0 0 0 0 0 0 0 0 0 0 0 0 0 0 0 0 0 0 0 0 0 0 0 0 0 0 0 0 0 0 0 0
0 0 0 0 0 0 0 0 0 0 0 0 0 0 0 0 0 0 0 0 0 0 0 0 0 0 0 0 0 0 0 0 0 0 0 0 0 0 0 0 0 0 0 0
0 0 0 0 0 0 0 0 0 0 0 0 0 0 0 0 0 0 0 0 0 0 0 0 0 0 0 0 0 0 0 0 0 0 0 0 0 0 0 0 0 0 0 0
0 0 0 0 0 0 0 0 0 0 0 0 0 0 0 0 0 0 0 0 0 0 0 0 0 0 0 0 0 0 0 0 0 0 0 0 0 0 0 0 0 0 0 0
2 0 1 0 0 0 0 0 0 0 0 0 0 0 0 0 0 0 0 0 0 0 0 0 0 0 0 0 0 0 0 0 0 0 0 0 0 1 1 0 0 0 0 0
0 0 0 0 0 0 0 0 0 0 0 0 0 0 0 0 0 0 0 0 0 0 0 0 0 0 0 0 0 0 0 0 0 0 0 0 0 0 2 0 0 0 0 0
0 1 0 0 0 0 1 1 0 0 0 0 0 0 0 0 0 0 0 0 0 0 0 0 0 0 0 0 0 0 0 0 0 0 0 0 0 1 0 0 0 0 0 0
3 0 0 0 0 0 0 0 0 24 21 4 0 0 0 0 0 0 0 0 0 0 0 0 0 0 0 0 0 0 0 0 0 0 0 0 1 1 0 0 0 0 0 0
0 0 0 0 0 0 0 0 0 2 0 1 0 0 0 0 0 0 0 0 0 0 0 0 0 0 0 0 0 0 0 0 0 1 0 0 0 0 0 0 0 0 0 0
0 0 0 0 0 0 0 0 0 0 0 0 1 0 0 0 0 0 0 0 0 0 0 0 0 0 0 0 0 0 0 0 0 0 0 0 0 0 0 0 0 0 0 0
0 0 0 0 0 0 0 0 0 0 0 0 0 0 0 0 0 0 0 0 0 0 0 0 0 0 0 0 0 0 0 0 0 0 0 0 0 0 1 0 0 0 0 0
0 0 0 0 0 0 0 0 0 0 0 0 0 0 0 0 0 0 0 0 0 0 0 0 0 0 0 0 0 0 0 0 0 0 0 0 0 0 1 1 2 1 0 0
0 0 0 0 0 0 0 0 0 0 0 0 0 0 0 0 0 0 0 0 0 0 0 0 0 0 0 0 0 0 0 0 0 0 0 0 0 1 1 1 0 1 1 0
0 0 0 0 0 0 0 0 0 0 0 0 0 0 0 0 0 0 0 0 0 0 0 0 0 0 0 0 0 0 0 0 0 0 0 0 0 1 1 1 1 0 0 0
0 0 0 0 0 0 0 0 0 0 0 0 0 0 0 0 0 0 0 0 0 0 0 0 0 0 0 0 0 0 0 0 0 0 0 1 1 1 1 1 1 0 0 0
0 0 0 0 0 0 0 0 0 0 0 0 0 0 0 0 0 0 0 0 0 0 0 0 0 0 0 0 0 0 0 0 0 0 0 0 0 0 1 1 1 0 0 0
1 0 0 0 0 0 0 0 0 0 0 0 0 0 0 0 0 0 0 0 0 0 0 1 0 0 0 0 0 0 0 0 0 1 0 0 0 0 0 1 1 1 1 0
0 0 0 1 1 1 0 0 0 0 0 0 0 0 0 0 0 0 0 0 0 0 0 0 0 1 2 1 2 1 1 1 0 0 1 1 1 1 0 1 1 1 1 1
1 1 1 1 0 0 0 1 0 0 0 0 0 0 0 0 0 0 0 0 0 0 0 0 0 0 0 0 1 1 1 1 1 1 0 0 0 0 0 0 0 0 1 1
1 0 0 0 0 1 2 2 0 0 0 0 0 0 0 0 0 0 0 0 0 0 0 0 0 0 0 0 0 1 0 0 0 0 0 0 0 0 0 0 0 0 0 0
1 1 1 1 0 0 0 0 0 0 0 0 0 0 0 0 0 0 0 0 0 0 0 0 0 0 0 0 0 0 0 1 1 1 1 1 1 0 0 0 0 0 0 0
0 0 0 0 0 0 0 0 0 0 0 0 0 0 0 0 0 0 0 0 0 0 0 0 0 0 0 0 0 0 0 0 0 0 0 0 0 1 1 1 1 1 1 0
0 0 0 0 0 0 0 0 0 0 0 0 0 0 0 0 0 0 0 0 0 0 0 0 0 0 0 0 0 0 0 0 0 0 0 0 0 0 0 0 0 0 0 0
1 0 0 0 0 0 0 0 0 0 0 0 0 0 0 0 0 0 0 0 0 0 0 0 0 0 0 0 0 0 0 0 0 0 0 0 0 0 0 0 0 0 0 0
0 0 0 0 0 0 0 0 0 0 0 0 0 0 0 0 0 0 0 0 0 0 0 0 0 0 0 0 0 0 0 0 0 0 0 0 0 0 0 0 0 0 0 0
0 0 0 0 0 0 0 0 0 0 0 0 0 0 0 0 0 0 0 0 0 0 0 0 0 0 0 0 0 0 0 0 0 0 0 0 0 0 0 0 0 1 0 0
CIN
-0 -2 -2 -0 -0 -2 -0 -0 -0 -0 -0 -0 -0 -0 -0 -0 -0 -0 -0 -0 -0 -0 -0 -0 -0 -0 -0 -0 -0 -0 -0 -0 -0 -0 -0 -0 -0 -0 -0 -0 -0 -0 -0 -0
-0 -5 -0 -0 -0 -1 -0 -0 -0 -0 -0 -0 -0 -0 -0 -0 -0 -0 -0 -0 -0 -0 -0 -0 -0 -0 -0 -0 -0 -0 -0 -0 -0 -0 -0 -0 -0 -0 -0 -0 -0 -0 -0 -0
-0 -0 -0 -0 -0 -0 -0 -0 -0 -0 -0 -0 -0 -0 -0 -0 -0 -0 -0 -0 -0 -0 -0 -0 -0 -0 -0 -0 -0 -0 -0 -0 -0 -0 -0 -0 -0 -0 -0 -0 -0 -0 -0 -0
-0 -0 -0 -0 -0 -0 -0 -0 -0 -0 -0 -0 -0 -0 -0 -0 -0 -0 -0 -0 -0 -0 -0 -0 -0 -0 -0 -0 -0 -0 -0 -0 -0 -0 -0 -0 -0 -0 -0 -0 -0 -0 -0 -0
-0 -0 -0 -0 -0 -0 -0 -0 -0 -0 -0 -0 -0 -0 -0 -0 -0 -0 -0 -0 -0 -0 -0 -0 -0 -0 -0 -0 -0 -0 -0 -0 -0 -0 -0 -0 -0 -0 -0 -0 -0 -0 -0 -0
-4 -0 -3 -0 -0 -0 -0 -0 -0 -0 -0 -0 -0 -0 -0 -0 -0 -0 -0 -0 -0 -0 -0 -0 -0 -0 -0 -0 -0 -0 -0 -0 -0 -0 -0 -0 -0 -0 -0 -0 -0 -0 -0 -0
-0 -0 -0 -0 -0 -0 -0 -0 -0 -0 -0 -0 -0 -0 -0 -0 -0 -0 -0 -0 -0 -0 -0 -0 -0 -0 -0 -0 -0 -0 -0 -0 -0 -0 -0 -0 -0 -0 -0 -0 -0 -0 -0 -0
-0 -1 -0 -0 -0 -0 -4 -17 -0 -0 -0 -0 -0 -0 -0 -0 -0 -0 -0 -0 -0 -0 -0 -0 -0 -0 -0 -0 -0 -0 -0 -0 -0 -0 -0 -0 -0 -0 -0 -0 -0 -0 -0 -0
-4 -4 -0 -0 -0 -0 -0 -0 -1 -9 -14 -26 -0 -0 -0 -0 -0 -0 -0 -0 -0 -0 -0 -0 -0 -0 -0 -0 -0 -0 -0 -0 -0 -0 -0 -0 -0 -0 -0 -0 -0 -0 -0 -0
-0 -0 -0 -0 -0 -0 -0 -0 -0 -26 -0 -30 -0 -0 -0 -0 -0 -0 -0 -0 -0 -0 -0 -0 -0 -0 -0 -0 -0 -0 -0 -0 -0 -0 -0 -0 -0 -0 -0 -0 -0 -0 -0 -0
-0 -0 -0 -0 -0 -0 -0 -0 -0 -0 -0 -0 -29 -0 -0 -0 -0 -0 -0 -0 -0 -0 -0 -0 -0 -0 -0 -0 -0 -0 -0 -0 -0 -0 -0 -0 -0 -0 -0 -0 -0 -0 -0 -0
-0 -0 -0 -0 -0 -0 -0 -0 -0 -0 -0 -0 -0 -0 -0 -0 -0 -0 -0 -0 -0 -0 -0 -0 -0 -0 -0 -0 -0 -0 -0 -0 -0 -0 -0 -0 -0 -0 -0 -0 -0 -0 -0 -0
-0 -0 -0 -0 -0 -0 -0 -0 -0 -0 -0 -0 -0 -0 -0 -0 -0 -0 -0 -0 -0 -0 -0 -0 -0 -0 -0 -0 -0 -0 -0 -0 -0 -0 -0 -0 -0 -0 -0 -0 -0 -0 -0 -0
-0 -0 -0 -0 -0 -0 -0 -0 -0 -0 -0 -0 -0 -0 -0 -0 -0 -0 -0 -0 -0 -0 -0 -0 -0 -0 -0 -0 -0 -0 -0 -0 -0 -0 -0 -0 -0 -0 -0 -0 -0 -0 -0 -0
-0 -0 -0 -0 -0 -0 -0 -0 -0 -0 -0 -0 -0 -0 -0 -0 -0 -0 -0 -0 -0 -0 -0 -0 -0 -0 -0 -0 -0 -0 -0 -0 -0 -0 -0 -0 -0 -0 -0 -0 -0 -0 -0 -0
-0 -0 -0 -0 -0 -0 -0 -0 -0 -0 -0 -0 -0 -0 -0 -0 -0 -0 -0 -0 -0 -0 -0 -0 -0 -0 -0 -0 -0 -0 -0 -0 -0 -0 -0 -0 -0 -0 -0 -0 -0 -0 -0 -0
-0 -0 -0 -0 -0 -0 -0 -0 -0 -0 -0 -0 -0 -0 -0 -0 -0 -0 -0 -0 -0 -0 -0 -0 -0 -0 -0 -0 -0 -0 -0 -0 -0 -0 -0 -0 -0 -0 -0 -0 -0 -0 -0 -0
-0 -0 -0 -0 -0 -0 -0 -0 -0 -0 -0 -0 -0 -0 -0 -0 -0 -0 -0 -0 -0 -0 -0 -0 -0 -0 -0 -0 -0 -0 -0 -0 -0 -0 -0 -0 -0 -0 -0 -0 -0 -0 -0 -0
-0 -0 -0 -0 -0 -0 -0 -0 -0 -0 -0 -0 -0 -0 -0 -0 -0 -0 -0 -0 -0 -0 -0 -0 -0 -0 -0 -0 -0 -0 -0 -0 -0 -0 -0 -0 -0 -0 -0 -0 -0 -0 -0 -0
-0 -0 -0 -0 -0 -0 -0 -0 -0 -0 -0 -0 -0 -0 -0 -0 -0 -0 -0 -0 -0 -0 -0 -0 -0 -0 -0 -0 -0 -0 -0 -0 -0 -0 -0 -0 -0 -0 -0 -0 -0 -0 -0 -0
-0 -0 -0 -0 -0 -0 -0 -0 -0 -0 -0 -0 -0 -0 -0 -0 -0 -0 -0 -0 -0 -0 -0 -0 -0 -0 -0 -0 -0 -0 -0 -0 -0 -0 -0 -0 -0 -0 -0 -0 -0 -0 -0 -0
-0 -0 -0 -0 -0 -0 -0 -0 -0 -0 -0 -0 -0 -0 -0 -0 -0 -0 -0 -0 -0 -0 -0 -0 -0 -0 -0 -0 -0 -0 -0 -0 -0 -0 -0 -0 -0 -0 -0 -0 -0 -0 -0 -0
-0 -0 -0 -0 -0 -0 -0 -0 -0 -0 -0 -0 -0 -0 -0 -0 -0 -0 -0 -0 -0 -0 -0 -0 -0 -0 -0 -0 -0 -0 -0 -0 -0 -0 -0 -0 -0 -0 -0 -0 -0 -0 -0 -0
-0 -0 -0 -0 -0 -0 -0 -0 -0 -0 -0 -0 -0 -0 -0 -0 -0 -0 -0 -0 -0 -0 -0 -0 -0 -0 -0 -0 -0 -0 -0 -0 -0 -0 -0 -0 -0 -0 -0 -0 -0 -0 -0 -0
-0 -0 -0 -0 -0 -0 -0 -0 -0 -0 -0 -0 -0 -0 -0 -0 -0 -0 -0 -0 -0 -0 -0 -0 -0 -0 -0 -0 -0 -0 -0 -0 -0 -0 -0 -0 -0 -0 -0 -0 -0 -0 -0 -0
-0 -0 -0 -0 -0 -0 -0 -0 -0 -0 -0 -0 -0 -0 -0 -0 -0 -0 -0 -0 -0 -0 -0 -0 -0 -0 -0 -0 -0 -0 -0 -0 -0 -0 -0 -0 -0 -0 -0 -0 -0 -0 -0 -0
-0 -0 -0 -0 -0 -0 -0 -0 -0 -0 -0 -0 -0 -0 -0 -0 -0 -0 -0 -0 -0 -0 -0 -0 -0 -0 -0 -0 -0 -0 -0 -0 -0 -0 -0 -0 -0 -0 -0 -0 -0 -0 -0 -0
Wind_Speed
40 33 30 26 29 21 21 26 30 32 37 38 38 36 30 27 27 27 24 22 20 17 15 10 6 5 4 4 4 5 6 7 8 9 12 13 15 17 19 21 23 24 23 23
35 28 28 33 33 27 24 23 42 42 45 31 36 38 40 38 37 35 29 24 25 19 17 12 8 6 5 3 3 3 4 6 7 8 10 13 16 19 20 22 23 24 24 24
24 20 25 30 32 34 29 28 30 36 38 29 30 32 33 33 31 32 31 30 27 22 18 14 10 8 7 5 4 5 5 6 7 9 11 14 16 18 21 21 21 22 23 23
24 14 26 24 20 16 20 22 23 34 30 27 26 29 32 32 32 32 32 31 29 21 15 12 9 8 7 7 6 6 7 7 8 10 12 14 17 20 21 22 22 21 21 20
17 19 23 24 21 17 18 25 24 29 27 28 28 23 28 28 24 26 29 29 29 24 20 13 10 9 8 9 8 7 7 7 9 11 13 14 17 19 19 20 20 20 19 18
19 16 17 20 17 15 15 24 18 16 18 19 19 24 21 23 26 29 29 28 26 20 19 15 11 10 10 9 9 9 8 9 9 11 13 15 16 17 19 19 20 19 19 18
11 15 21 15 14 14 23 21 16 15 16 17 19 21 24 26 26 26 26 25 22 17 20 17 8 7 10 8 9 10 9 10 10 11 13 14 16 16 17 17 16 16 17 15
1 12 22 14 16 21 19 18 19 19 20 21 21 23 23 23 24 24 23 22 20 16 14 10 6 6 7 8 10 10 10 11 12 14 14 14 13 14 14 14 13 12 13 15
5 15 20 18 20 21 21 22 20 19 19 20 21 22 22 21 21 20 19 18 15 12 11 12 11 10 10 10 9 10 10 12 12 13 14 14 14 12 12 12 13 11 10 9
19 16 19 23 21 20 22 23 22 20 20 20 20 20 19 18 18 17 17 16 14 12 12 11 11 11 10 10 9 9 11 12 12 14 14 14 13 12 12 10 9 8 6 6
18 33 31 18 20 24 26 25 23 23 23 21 19 17 16 16 16 16 15 15 15 13 11 10 9 10 9 8 8 10 11 12 13 13 14 15 15 13 12 10 8 7 6 4
15 26 28 27 28 26 24 24 23 23 19 17 17 14 14 15 15 16 15 15 15 14 13 12 11 11 12 11 11 12 14 15 13 14 15 15 16 16 12 11 7 6 8 8
25 26 28 32 29 25 25 25 23 21 18 15 15 13 13 14 15 15 16 17 17 17 16 15 16 17 16 16 15 16 17 14 14 14 14 15 16 14 14 11 8 5 3 5
34 28 29 26 30 29 26 24 21 18 16 15 14 14 14 14 15 16 18 19 19 19 19 18 19 21 19 17 15 16 14 14 14 12 14 15 17 18 16 14 12 9 4 5
11 7 21 30 29 28 26 23 21 19 17 16 15 14 14 15 16 18 19 20 20 20 20 21 22 23 19 17 17 18 17 17 15 15 15 15 17 17 17 18 19 19 17 15
4 25 25 24 25 25 24 23 20 17 16 16 15 16 16 17 17 18 20 21 22 23 23 24 24 25 25 22 21 20 20 19 18 17 16 17 17 17 17 17 18 18 19 20
11 8 16 25 25 25 23 21 19 15 15 15 16 17 18 18 18 21 23 24 23 22 23 24 26 26 26 25 23 23 22 21 19 19 18 17 18 18 19 18 18 19 20 20
14 11 19 22 25 24 21 19 17 14 14 15 17 18 19 21 22 24 25 25 23 22 23 24 25 25 24 25 26 25 24 24 23 21 20 19 19 19 20 21 21 21 22 21
17 16 19 19 20 17 16 18 18 16 16 18 18 20 21 22 24 24 23 23 23 23 25 25 26 25 25 26 26 26 25 25 25 25 24 24 23 23 24 24 25 25 25 25
14 17 18 19 18 19 18 19 19 18 18 19 20 21 22 23 22 22 22 21 22 23 25 25 25 25 26 27 27 26 26 27 27 26 26 26 26 26 27 27 28 29 29 29
16 19 19 19 19 18 17 19 19 20 21 21 21 21 21 20 21 21 20 20 22 24 25 24 24 26 27 27 26 26 26 27 27 27 27 27 26 26 27 28 30 31 32 32
18 18 18 17 18 19 20 21 20 20 20 20 20 19 19 20 20 20 20 20 23 24 24 24 25 26 27 26 26 26 26 26 26 26 26 27 27 27 26 27 29 30 31 32
19 17 17 18 19 19 19 18 18 18 18 18 19 19 19 20 20 21 21 21 23 24 24 24 26 27 27 26 26 26 27 27 27 27 28 28 28 28 28 28 29 31 31 31
17 17 17 18 19 18 19 19 19 18 18 18 19 19 20 21 20 18 20 21 22 23 23 24 25 26 26 26 26 27 27 28 28 27 28 29 29 28 29 29 30 30 32 33
18 17 19 20 20 21 22 21 20 19 18 18 19 19 19 18 18 19 21 21 22 22 23 23 24 25 25 26 26 27 28 28 29 29 30 30 31 31 31 32 32 33 33 32
21 21 22 23 21 23 24 21 21 21 19 21 21 20 19 18 18 20 20 20 20 20 21 22 24 25 25 26 27 27 27 28 29 29 30 31 32 32 33 34 34 35 35 34
25 25 25 25 23 23 24 22 21 24 23 22 23 20 19 19 20 20 21 20 20 20 19 19 22 24 26 27 28 29 29 30 30 31 31 31 32 32 33 34 36 36 35 37
Wind_Direction
257 264 266 271 268 258 252 261 262 264 262 263 269 271 282 288 284 282 296 295 299 303 306 306 306 293 277 270 265 279 286 291 294 301 304 308 311 312 314 314 313 313 314 315
266 261 266 267 260 268 265 263 260 260 250 282 272 272 271 274 276 279 288 293 291 292 300 292 281 280 279 264 259 276 289 297 306 310 312 312 312 312 311 311 311 312 312 312
270 271 267 269 262 263 269 268 269 266 267 287 283 278 280 282 287 285 286 287 288 291 292 287 270 263 260 266 285 292 299 306 309 314 314 315 314 314 313 312 313 314 314 316
286 273 268 278 292 281 266 273 275 271 281 285 289 290 289 290 291 290 289 289 289 293 285 277 263 247 253 263 275 286 295 303 309 313 316 317 316 313 312 311 311 312 315 318
298 283 282 278 287 290 276 282 283 281 284 288 291 295 293 300 303 301 298 292 287 289 290 275 253 245 250 260 271 277 286 296 305 310 313 317 318 316 315 313 313 314 315 318
293 314 305 290 296 301 300 286 307 299 296 299 302 291 301 305 304 299 299 297 289 290 289 285 261 249 251 261 269 277 286 298 308 312 313 315 319 319 317 316 314 312 311 314
285 312 296 306 306 302 283 285 308 315 308 306 302 300 302 305 305 305 304 299 296 295 290 288 264 257 266 263 272 288 298 306 313 317 318 320 323 323 322 317 320 318 314 315
314 295 294 318 307 285 296 302 305 307 303 299 302 300 304 308 311 312 310 304 298 298 296 299 284 266 269 273 288 295 303 311 316 316 319 323 328 329 328 324 324 323 317 312
11 297 298 303 304 298 303 298 305 307 308 305 303 306 312 312 319 322 323 317 317 313 303 301 297 289 285 290 296 301 309 316 320 323 325 327 328 332 333 330 323 321 320 315
316 295 299 301 306 309 301 294 297 300 303 307 310 316 324 328 327 329 330 331 332 325 316 308 305 302 298 298 303 307 313 319 323 326 330 331 333 333 333 333 331 327 327 322
325 283 284 297 308 301 291 292 291 289 292 303 312 324 329 334 334 334 336 335 335 342 342 335 327 319 318 315 314 313 316 321 326 328 330 329 327 329 330 330 331 329 326 325
332 305 286 282 290 297 295 293 292 289 301 310 317 330 338 339 337 334 335 335 336 336 339 336 333 328 321 318 315 312 311 312 315 323 330 331 330 329 330 330 330 329 331 326
326 310 286 274 287 285 291 286 291 292 300 309 314 326 334 335 335 339 338 333 328 325 328 328 320 317 318 317 317 300 304 311 314 318 328 330 327 333 331 330 327 325 310 307
315 310 281 273 260 270 284 286 291 300 303 305 312 322 335 338 336 335 332 331 329 328 328 327 321 311 315 317 320 316 321 318 316 322 320 323 324 321 323 325 324 316 293 294
5 319 279 256 260 267 276 284 285 293 298 304 314 324 332 335 333 330 328 326 327 329 327 326 321 317 323 322 317 315 315 314 315 314 317 319 319 319 318 313 310 307 309 308
46 266 269 264 264 272 274 281 287 300 305 310 316 322 328 332 333 332 331 328 326 322 322 320 320 316 314 316 315 313 312 311 312 313 315 316 316 315 314 311 309 307 304 302
37 28 304 267 271 275 278 287 298 314 317 318 318 321 323 326 333 325 321 322 325 327 326 323 319 316 313 312 312 311 311 310 311 311 312 313 314 312 313 312 310 307 304 303
36 26 298 281 279 284 287 298 307 321 324 324 324 323 322 321 320 322 318 318 324 328 328 326 323 321 321 317 310 308 308 309 310 310 310 310 309 310 308 307 307 307 307 306
16 357 303 298 293 302 296 294 293 309 322 317 323 325 325 321 320 321 322 321 321 322 320 323 323 325 324 321 318 318 317 315 313 310 308 306 305 304 304 304 304 304 303 303
9 334 310 299 299 291 295 293 303 312 319 323 325 327 325 322 323 324 325 324 325 323 323 324 327 327 325 324 325 326 325 322 320 318 313 310 306 305 303 302 300 299 299 300
0 301 295 292 294 307 312 312 321 318 319 324 325 326 328 327 328 329 330 329 327 327 326 328 329 327 328 327 330 329 330 331 329 326 320 315 313 312 309 306 302 299 297 298
353 318 307 315 310 315 323 324 323 324 325 326 329 333 335 329 329 331 336 334 329 330 329 331 330 328 329 334 336 335 333 339 341 336 330 325 321 320 319 316 309 304 302 301
356 342 321 315 312 313 324 337 336 334 335 335 336 335 334 332 332 332 333 335 332 333 334 333 332 332 333 337 339 336 335 337 341 340 330 328 327 326 320 319 314 310 306 305
351 346 333 313 313 312 315 329 341 353 352 347 341 334 329 326 327 339 340 339 340 339 342 342 338 336 339 339 338 337 338 335 338 340 336 331 330 332 326 322 317 315 310 306
335 332 323 321 317 311 311 322 332 347 353 353 339 334 335 337 338 338 337 340 342 344 345 347 345 345 343 343 343 343 342 340 338 337 335 333 330 326 325 319 314 312 311 310
325 321 316 311 316 310 311 324 325 328 336 331 328 332 335 338 337 335 337 344 350 352 351 349 347 345 345 345 346 347 348 347 345 342 339 335 331 327 322 319 316 313 312 310
316 310 311 309 312 314 311 319 322 312 315 320 321 328 330 329 328 329 334 339 344 348 354 356 351 345 342 342 343 344 344 344 344 341 340 337 334 330 326 322 317 314 313 310